Hourly Data Report for May 16, 2022

TRENTON A
ONTARIO
Current Station Operator: DND

44°07'08.000" N
77°31'41.000" W
86.30 m
6158875
71621
YTR

Download Data

Hourly Data (May 2022)
Hourly Data Report for May 16, 2022
TIME
LST
Temp Definition
°C
Dew Point Definition
°C
Rel Hum Definition
%
Precip. Amount Definition
mm

Wind Dir Definition
10's deg

Wind Spd Definition
km/h
Visibility Definition
km
Stn Press Definition
kPa
Hmdx Definition


Wind Chill Definition


Weather Definition


00:00 19.9 14.6 72   23 8 24.1 99.58     LegendNANA
01:00 18.8 15.1 79   22 4 24.1 99.55     LegendNANA
02:00 16.6 14.6 88   4 4 24.1 99.51     LegendNANA
03:00 15.9 15.0 94   5 5 24.1 99.47     LegendNANA
04:00 16.5 14.8 90   32 8 24.1 99.53     LegendNANA
05:00 17.1 12.7 75   33 11 24.1 99.48     LegendNANA
06:00 16.5 11.9 74   1 9 24.1 99.46     LegendNANA
07:00 17.7 11.2 66   3 13 24.1 99.38     LegendNANA
08:00 19.0 11.0 60   6 21 24.1 99.30     LegendNANA
09:00 21.1 11.4 54   3 15 24.1 99.29     LegendNANA
10:00 21.3 11.8 55   4 11 24.1 99.21     LegendNANA
11:00 21.1 11.8 55   33 9 24.1 99.16     LegendNANA
12:00 17.4 15.0 86   18 8 9.7 99.15     Rain Showers, Fog
13:00 16.0 14.0 88   31 21 9.7 99.08     Rain Showers, Fog
14:00 14.5 13.1 91   35 17 9.7 99.02     Rain Showers, Fog
15:00 13.6 12.1 91   32 28 6.4 99.04     Rain Showers, Fog
16:00 11.8 10.1 89   34 18 12.9 99.11     Rain Showers
17:00 12.1 10.8 92   31 13 12.9 99.23     Rain Showers
18:00 11.9 10.7 92   33 15 8.1 99.29     Rain Showers, Fog
19:00 12.4 10.5 88   31 18 24.1 99.41     Rain Showers
20:00 11.5 9.8 89   30 13 24.1 99.46     LegendNANA
21:00 11.3 9.7 90   26 9 24.1 99.49     LegendNANA
22:00 11.0 9.5 90   25 13 24.1 99.51     LegendNANA
23:00 10.7 9.2 90   24 13 24.1 99.48     LegendNANA

Notes on Data Quality.

Legend

  • E = Estimated
  • M = Missing
  • NA = Not Available*
  • [empty] = Indicates an unobserved value
Date modified: